EHI
0 0 0 0 0 0 1 2 1 0 0 0 0 0 0 0 0 0 0 0 0 0 0 0 0 0 0 0 0 0 0 0 0 0 0 0 0 0 0 0 0 0 0
0 0 0 0 0 0 1 2 1 0 0 0 0 0 0 0 0 0 0 0 0 0 0 0 0 0 0 0 0 0 0 0 0 0 0 0 0 0 0 0 0 0 0
0 0 0 0 0 0 1 1 0 0 0 0 0 0 0 0 0 0 0 0 0 0 0 0 0 0 0 0 0 0 0 0 0 0 0 0 0 0 0 0 0 0 0
0 0 0 0 0 0 0 0 0 0 0 0 0 0 0 0 0 0 0 0 0 0 0 0 0 0 0 0 0 0 0 0 0 0 0 0 0 0 0 0 0 0 0
0 0 0 0 0 0 0 0 0 0 0 0 0 0 0 0 0 0 0 0 0 0 0 0 0 0 0 0 0 0 0 0 0 0 0 0 0 0 0 0 0 0 0
0 0 0 0 0 0 0 0 0 0 0 0 0 0 0 0 0 0 0 0 0 0 0 0 0 0 0 0 0 0 0 0 0 0 0 0 0 0 0 0 0 0 0
0 0 0 0 0 0 0 0 0 0 0 0 0 0 0 0 0 0 0 0 0 0 0 0 0 0 0 0 0 0 0 0 0 0 0 0 0 0 0 0 0 0 0
0 0 0 0 0 0 0 0 0 0 0 0 0 0 0 0 0 0 0 0 0 0 0 0 0 0 1 0 0 0 0 0 0 0 0 0 0 0 0 0 0 0 0
0 0 0 0 0 0 0 0 0 0 0 0 0 0 0 0 0 0 0 0 0 0 0 0 0 0 0 0 0 0 0 0 0 0 0 0 0 0 0 0 0 0 0
0 0 0 0 0 0 0 0 0 0 0 0 0 0 0 0 0 0 0 0 0 0 0 0 0 0 0 0 0 0 0 0 0 0 0 0 0 0 0 0 0 0 0
0 0 0 0 0 0 0 0 0 0 0 0 0 0 0 0 0 0 0 0 0 0 0 0 0 0 0 0 0 0 0 0 0 0 0 0 0 0 0 0 0 0 0
1 0 0 0 0 0 0 0 0 0 0 0 0 0 0 0 0 0 0 0 0 0 0 0 0 0 0 0 0 0 0 0 0 0 0 0 0 0 0 0 0 0 0
1 0 0 0 0 0 0 0 0 0 0 0 0 0 0 0 0 0 0 0 0 0 0 0 0 0 0 0 0 0 0 0 0 0 0 0 0 0 0 0 0 0 0
1 0 0 0 0 0 0 0 0 0 0 0 0 0 0 0 0 0 0 0 0 0 0 0 0 0 0 0 0 0 0 0 0 0 0 0 0 0 0 0 0 0 0
0 0 0 0 0 0 0 0 0 0 0 0 0 0 0 0 0 0 0 0 0 0 0 0 0 0 0 0 0 0 0 0 0 0 0 0 0 0 0 0 0 0 0
0 0 0 0 0 0 0 0 0 0 0 0 0 0 0 0 0 0 0 0 0 0 0 0 0 0 0 0 0 0 0 0 0 0 0 0 0 0 0 0 0 0 0
0 0 0 0 0 0 0 0 0 0 0 0 0 0 0 0 0 0 0 0 0 0 0 0 0 0 0 0 0 0 0 0 0 0 0 0 0 0 0 0 0 0 0
0 0 1 1 1 0 0 0 1 0 0 0 0 0 0 0 0 0 0 0 0 0 0 0 0 0 0 0 0 0 0 0 0 0 0 0 0 0 0 0 0 0 0
1 1 1 2 2 1 0 0 0 0 0 0 0 0 0 0 0 0 0 0 0 0 0 0 0 0 0 0 0 0 0 0 0 0 0 0 0 0 0 0 0 0 0
0 0 0 1 1 1 0 0 0 0 0 0 0 0 0 0 0 0 0 0 0 0 0 0 0 0 0 0 0 0 0 0 0 0 0 0 0 0 0 0 0 0 0
0 0 0 0 0 0 0 0 0 0 0 0 0 0 0 0 0 0 0 0 1 0 0 0 0 0 0 0 0 0 0 0 0 0 0 0 0 0 0 0 0 0 0
0 0 0 0 0 0 0 0 0 0 1 1 1 1 1 0 0 0 0 0 0 0 0 0 0 0 0 0 0 0 0 0 0 0 0 0 0 0 0 0 0 0 0
0 0 0 0 0 0 0 0 0 0 1 2 2 2 2 1 0 0 0 0 0 0 0 0 0 0 0 0 0 0 0 0 0 0 0 0 0 0 0 0 0 0 0
0 0 0 0 0 0 0 0 0 0 1 1 1 2 3 2 1 0 0 0 0 0 0 0 0 0 0 0 0 1 1 1 1 1 0 0 0 0 0 0 0 0 0
0 0 0 0 0 0 0 0 0 0 0 0 0 1 2 2 1 0 0 0 0 0 0 0 0 0 0 0 0 1 2 2 1 0 0 0 0 0 0 0 0 0 0
0 0 0 0 0 0 0 0 0 0 0 0 0 0 1 1 0 0 0 0 0 0 0 0 0 0 0 0 0 1 3 2 1 0 0 0 0 0 0 0 0 0 0
Wind_Speed
3 3 3 3 3 3 3 4 4 5 6 6 6 7 7 7 6 6 6 10 11 12 11 11 11 11 11 11 11 10 11 11 10 10 10 9 9 8 7 7 6 6 6
2 3 3 3 3 3 3 3 4 4 4 4 6 6 6 6 6 5 5 7 10 10 11 10 10 10 11 11 11 11 11 11 10 10 10 9 9 9 8 7 7 7 7
2 2 2 3 3 3 3 2 4 3 3 4 5 5 5 5 4 5 5 4 5 8 10 10 10 10 10 10 10 10 10 10 10 10 10 9 9 9 9 8 8 7 7
2 2 2 2 2 2 2 2 2 2 3 3 3 3 3 3 4 4 4 4 4 4 7 9 9 9 9 9 9 9 9 9 9 9 9 9 9 9 9 9 8 8 8
2 2 1 1 2 2 2 1 1 1 2 2 2 2 2 3 3 2 3 4 4 3 3 6 6 7 7 7 7 8 8 8 8 8 9 9 9 9 9 9 9 8 8
1 2 1 2 2 2 1 1 2 1 1 1 2 2 2 2 2 2 2 3 3 3 3 3 3 5 6 6 6 6 6 7 7 7 8 8 8 8 8 8 8 8 7
1 1 1 1 1 1 1 2 2 2 1 1 1 2 2 2 3 2 2 1 2 2 2 2 2 2 3 5 5 5 5 5 6 6 6 7 6 7 7 7 7 8 8
2 2 2 2 2 2 2 2 2 1 1 1 1 1 1 3 2 2 1 1 1 2 1 2 2 2 2 2 5 5 3 4 5 6 6 6 6 6 6 6 6 7 7
2 2 2 2 2 2 2 2 2 2 1 1 1 2 1 0 1 2 2 1 2 1 1 1 2 2 2 2 3 5 5 4 4 5 5 5 5 5 5 5 5 6 6
3 2 2 2 2 2 2 3 3 2 2 2 1 1 2 2 2 1 2 2 1 1 1 1 1 1 2 2 3 5 5 4 3 3 3 3 3 3 4 4 4 4 5
2 2 2 3 3 2 2 3 3 3 3 2 2 1 1 2 3 2 1 2 1 1 1 0 0 1 1 1 2 5 4 3 3 3 3 2 3 3 2 3 3 4 4
2 3 3 3 3 3 3 3 3 3 3 3 2 2 2 2 2 2 2 2 1 1 0 0 0 0 0 1 2 4 3 3 3 3 3 3 2 3 3 3 4 4 4
2 2 3 3 3 3 2 2 3 3 3 3 3 2 2 3 2 2 2 2 2 1 1 1 1 1 1 1 2 3 2 2 2 2 3 3 3 3 3 3 3 3 3
2 2 3 2 3 3 3 3 2 3 3 3 3 3 2 2 2 2 2 2 2 2 2 1 1 1 1 1 3 2 3 3 1 1 1 2 2 2 2 2 2 2 2
2 3 3 3 3 3 3 3 3 3 3 3 3 3 3 2 2 2 2 2 3 2 2 1 1 1 1 0 2 2 1 4 2 1 1 1 0 1 1 1 1 1 1
3 3 3 4 3 3 4 4 3 3 4 3 3 3 3 2 2 2 2 2 3 3 2 0 1 1 1 1 1 1 0 4 2 1 1 2 2 1 1 1 0 0 1
4 4 4 4 3 3 4 4 4 4 4 4 4 4 4 3 2 2 2 2 3 3 3 2 1 1 2 1 1 1 1 2 2 2 2 3 3 3 2 2 2 1 1
3 4 4 3 3 3 3 4 4 4 5 5 4 4 4 3 4 3 2 3 3 3 3 3 2 1 2 1 1 1 1 1 2 2 3 3 4 3 3 3 3 2 2
2 3 3 3 3 4 4 4 4 4 4 4 4 5 5 4 4 3 3 3 3 3 3 3 2 1 2 1 2 2 2 2 2 1 3 4 4 4 4 4 4 3 3
2 2 2 3 3 3 3 4 4 4 4 4 4 4 4 4 4 4 4 4 4 4 3 3 3 2 2 2 2 3 3 2 2 2 2 2 4 5 4 4 4 4 4
2 1 1 2 2 2 1 3 3 4 4 4 4 4 3 2 2 3 3 4 4 4 4 4 3 3 3 2 3 3 3 3 3 2 2 2 3 3 4 5 6 5 5
2 2 1 1 1 0 2 2 4 4 4 4 4 4 4 4 3 3 4 4 4 5 5 5 4 4 4 4 4 4 3 3 3 2 3 3 3 3 3 3 4 5 5
2 2 2 1 1 0 1 1 3 4 4 4 4 4 3 3 4 5 6 7 7 7 6 6 6 6 5 4 5 5 5 4 4 2 3 4 3 4 3 2 3 5 5
2 2 2 2 2 1 1 1 3 5 4 4 4 4 4 4 3 4 5 6 6 7 7 7 7 6 5 4 5 5 5 6 5 2 3 4 3 4 3 3 5 5 5
2 3 2 2 2 1 1 1 4 4 4 4 4 4 4 5 2 4 6 6 6 5 6 7 7 5 3 3 4 4 5 5 5 4 3 4 4 3 4 4 3 6 6
2 2 2 2 2 2 1 0 4 3 4 4 3 3 3 4 2 3 6 6 7 6 5 6 7 7 7 6 7 7 6 5 5 4 3 4 4 3 3 3 3 3 4
Wind_Direction
93 92 98 95 88 87 95 89 79 73 71 66 63 61 62 63 62 65 71 63 55 56 63 68 70 67 67 66 67 71 70 69 69 67 65 65 64 65 65 70 73 73 76
112 102 97 96 90 88 83 89 87 82 75 72 67 64 62 63 63 67 71 78 68 60 61 65 69 69 69 66 65 68 70 70 69 66 65 65 64 62 62 66 71 74 75
115 114 105 108 107 110 105 90 89 84 84 84 79 72 66 58 62 69 70 66 77 75 65 60 63 67 70 71 70 70 70 71 69 67 66 66 67 66 64 68 73 77 76
126 109 115 116 117 118 116 106 102 99 97 87 79 74 73 68 58 58 69 71 66 68 78 65 57 62 68 69 71 70 69 70 71 67 66 67 68 68 69 70 74 77 76
149 137 123 127 123 128 128 123 109 101 101 93 88 79 67 66 64 68 68 66 74 75 75 90 78 62 63 65 67 68 70 70 70 69 68 68 69 70 70 71 73 75 76
145 138 146 142 132 143 134 136 117 116 103 111 99 83 78 80 73 59 49 60 60 67 67 71 91 91 74 63 62 70 73 71 70 69 67 67 68 68 68 69 71 72 76
165 144 163 154 153 147 154 157 138 135 139 145 146 127 116 97 77 79 57 51 76 66 68 70 59 60 101 95 68 63 69 72 73 72 70 68 67 69 71 71 72 75 76
165 169 178 167 155 152 175 172 165 193 150 221 266 224 172 152 122 92 89 69 70 78 55 55 65 63 49 78 81 62 47 65 70 70 68 65 63 64 70 73 73 77 80
167 174 177 178 172 176 174 191 199 217 220 207 297 303 287 6 132 138 99 97 74 62 59 54 52 62 68 73 85 79 53 54 67 67 65 61 62 67 72 74 79 79 81
175 179 182 189 184 190 187 199 205 220 229 227 202 300 315 329 272 162 158 128 95 53 32 50 56 67 70 75 81 73 56 43 61 69 69 67 66 75 76 73 81 83 81
182 182 198 198 195 195 200 207 218 225 229 244 247 240 249 249 263 258 206 173 157 113 46 10 36 79 85 84 90 75 56 45 49 55 58 71 66 73 81 90 93 87 84
184 186 198 201 202 201 203 204 214 218 234 234 244 245 250 256 250 250 251 217 199 162 138 55 262 133 121 134 94 76 60 56 56 53 53 61 65 64 73 85 87 87 85
193 191 198 204 204 206 208 208 213 223 228 230 238 250 257 267 270 264 256 247 237 209 186 195 185 174 173 186 120 116 121 87 66 64 62 57 61 67 67 69 73 79 81
206 206 210 210 211 212 215 215 228 227 235 232 236 239 249 258 252 250 254 249 241 223 211 193 159 164 170 189 96 192 136 123 107 87 82 78 74 70 71 71 62 66 73
224 217 212 213 208 211 219 220 227 232 238 240 239 234 242 248 238 244 238 247 260 252 231 192 184 162 169 159 112 219 183 120 146 157 182 174 133 103 90 62 52 54 71
227 229 223 231 220 218 220 224 231 235 236 232 240 244 240 237 223 234 251 252 254 262 270 240 204 177 170 193 120 271 107 119 160 180 220 218 202 172 160 158 171 127 116
230 231 227 231 230 229 227 221 230 232 237 236 231 233 233 232 218 220 231 244 251 247 247 257 210 190 183 222 164 258 232 225 181 185 220 205 197 190 196 204 202 195 199
233 229 228 227 226 229 228 229 233 235 236 238 237 234 230 217 219 222 222 230 236 243 240 242 226 210 224 227 231 249 259 262 271 133 169 182 189 195 206 213 213 207 200
231 222 218 219 220 224 221 222 225 229 237 241 238 235 232 217 216 216 219 229 230 229 234 236 239 206 234 225 239 242 243 247 265 146 166 186 192 200 212 218 219 216 216
225 219 214 216 219 224 224 228 229 232 233 234 237 238 237 225 225 223 221 229 227 221 217 227 226 215 219 229 238 240 241 229 242 246 202 194 187 198 212 219 219 220 223
226 235 229 217 210 224 253 265 245 240 236 232 229 231 235 242 269 253 242 233 225 223 217 222 225 226 226 218 235 242 246 244 236 243 239 223 207 210 202 206 212 217 222
212 219 217 224 213 205 45 320 277 244 237 232 228 227 227 221 216 221 239 250 249 235 228 223 226 229 240 236 237 243 244 248 250 220 240 243 230 233 227 217 182 191 208
213 221 222 220 235 194 94 259 270 264 244 238 237 233 230 229 236 232 218 221 231 240 248 248 238 235 241 238 238 240 242 246 254 235 234 250 232 239 236 214 161 189 205
224 229 236 242 243 203 96 247 259 253 257 250 244 244 241 239 236 255 246 234 232 230 233 240 247 251 255 251 244 250 252 253 256 228 224 256 241 242 239 225 177 199 214
239 243 239 245 252 226 142 269 263 248 250 254 253 250 253 247 231 252 249 243 239 236 219 230 254 264 272 262 250 236 238 238 244 232 210 250 261 253 242 235 197 194 214
238 242 240 245 250 265 99 272 278 252 251 253 252 246 242 260 261 240 245 246 244 245 242 223 229 232 236 222 215 230 234 238 246 246 210 229 255 251 248 228 223 209 215